1487120400.14,63917,11.88,74788.8,-0.37,-26.55,-26.97,0,*60
1487120401.35,63918,11.88,74788.8,-0.37,-26.49,-26.87,0,*63
1487120402.57,63919,11.88,74790.8,-0.37,-26.39,-26.71,0,*6C
1487120403.82,63920,11.88,74784.8,-0.35,-26.17,-26.49,0,*63
1487120405.07,63921,11.88,74784.5,-0.37,-26.29,-26.71,0,*66
1487120406.32,63922,11.88,74788.3,-0.35,-26.23,-26.55,0,*6B
1487120407.54,63923,11.88,74790.5,-0.35,-25.87,-26.23,0,*66
1487120408.76,63924,11.88,74790.5,-0.35,-25.91,-26.23,0,*66
1487120410.0,63925,11.88,74790.8,-0.35,-26.03,-26.23,0,*6F
1487120411.25,63926,11.88,74788.3,-0.31,-25.87,-26.29,0,*6D
1487120412.51,63927,11.88,74790.0,-0.31,-25.87,-26.29,0,*6C
1487120413.72,63928,11.88,74790.0,-0.33,-26.03,-26.39,0,*6F
1487120414.98,63929,11.88,74788.0,-0.29,-25.81,-26.13,0,*64
1487120416.24,63930,11.88,74790.0,-0.31,-25.87,-26.13,0,*63
1487120417.49,63931,11.88,74788.0,-0.27,-25.97,-26.39,0,*6C
1487120418.69,63932,11.88,74794.3,-0.29,-26.07,-26.45,0,*60
1487120419.95,63933,11.88,74794.0,-0.27,-25.97,-26.39,0,*6E
1487120421.23,63934,11.88,74802.5,-0.27,-26.29,-26.77,0,*65
1487120422.48,63935,11.88,74794.5,-0.27,-26.45,-26.81,0,*67
1487120423.73,63936,11.88,74792.8,-0.27,-26.45,-26.93,0,*67
1487120424.97,63937,11.88,74794.5,-0.27,-26.61,-26.93,0,*60
1487120426.22,63938,11.88,74790.5,-0.27,-26.45,-26.93,0,*69
1487120427.5,63939,11.88,74790.8,-0.27,-26.77,-26.97,0,*6D
1487120428.74,63940,11.88,74788.8,-0.29,-26.97,-27.29,0,*67
1487120430.02,63941,11.88,74790.0,-0.27,-27.23,-27.61,0,*6A
1487120431.24,63942,11.88,74788.3,-0.29,-27.23,-27.55,0,*60
1487120432.47,63943,11.88,74786.5,-0.29,-27.13,-27.61,0,*65
1487120433.7,63944,11.88,74782.3,-0.29,-27.13,-27.39,0,*6F
1487120434.95,63945,11.88,74784.0,-0.29,-26.93,-27.23,0,*6C
1487120436.19,63946,11.88,74788.3,-0.27,-26.65,-27.07,0,*6E
1487120437.44,63947,11.88,74790.8,-0.27,-26.81,-27.13,0,*60
1487120438.7,63948,11.88,74784.5,-0.29,-26.97,-27.39,0,*6E
1487120439.97,63949,11.88,74786.0,-0.27,-26.93,-27.23,0,*6E
1487120441.23,63950,11.88,74782.5,-0.27,-26.93,-27.07,0,*60
1487120442.48,63951,11.88,74786.3,-0.29,-26.55,-26.93,0,*69
1487120443.73,63952,11.88,74782.8,-0.27,-26.61,-26.97,0,*67
1487120444.98,63953,11.88,74782.5,-0.27,-26.61,-26.97,0,*66
1487120446.24,63954,11.88,74782.3,-0.27,-26.97,-27.29,0,*6C
1487120447.51,63955,11.88,74778.3,-0.27,-26.93,-27.23,0,*63
1487120448.77,63956,11.88,74782.5,-0.25,-26.93,-27.35,0,*65
1487120450.03,63957,11.88,74782.3,-0.27,-26.81,-27.13,0,*61
1487120451.26,63958,11.88,74778.8,-0.29,-26.81,-27.13,0,*60
1487120452.49,63959,11.88,74782.8,-0.27,-26.65,-27.07,0,*60
1487120453.77,63960,11.88,74782.3,-0.27,-26.77,-26.97,0,*61
1487120455.02,63961,11.88,74786.3,-0.27,-26.93,-27.13,0,*67
1487120456.22,63962,11.88,74784.8,-0.25,-26.61,-26.87,0,*67
1487120457.48,63963,11.88,74786.8,-0.27,-26.65,-26.97,0,*61
1487120458.73,63964,11.88,74790.5,-0.27,-26.61,-26.93,0,*66
1487120460.0,63965,11.88,74794.3,-0.27,-26.55,-26.93,0,*60
1487120461.23,63966,11.88,74794.8,-0.25,-26.49,-26.77,0,*66
1487120462.49,63967,11.88,74796.3,-0.23,-26.33,-26.61,0,*6B
1487120463.74,63968,11.88,74788.8,-0.25,-26.33,-26.71,0,*63
1487120464.99,63969,11.88,74786.0,-0.23,-27.03,-27.23,0,*60
1487120466.27,63970,11.88,74784.8,-0.23,-26.93,-27.23,0,*60
1487120467.54,63971,11.88,74780.5,-0.23,-26.93,-27.23,0,*61
1487120468.82,63972,11.88,74780.3,-0.23,-26.93,-27.35,0,*65
1487120470.06,63973,11.88,74782.5,-0.23,-27.19,-27.51,0,*65
1487120471.31,63974,11.88,74778.8,-0.23,-27.23,-27.67,0,*6E
1487120472.56,63975,11.88,74776.8,-0.25,-27.19,-27.35,0,*67
1487120473.81,63976,11.88,74778.8,-0.23,-26.87,-27.23,0,*63
1487120475.05,63977,11.88,74776.0,-0.23,-27.23,-27.55,0,*6C
1487120476.3,63978,11.88,74770.5,-0.23,-27.39,-27.71,0,*6E
1487120477.55,63979,11.88,74770.5,-0.23,-27.35,-27.67,0,*64
1487120478.78,63980,11.88,74774.0,-0.25,-27.39,-27.71,0,*6F
1487120479.98,63981,11.88,74772.8,-0.25,-27.51,-27.77,0,*66
1487120481.18,63982,11.88,74772.0,-0.25,-27.67,-27.77,0,*60
1487120482.39,63983,11.88,74768.0,-0.25,-27.67,-27.89,0,*60
1487120483.6,63984,11.88,74768.5,-0.25,-27.67,-27.89,0,*67
1487120484.8,63985,11.88,74768.8,-0.25,-27.51,-27.71,0,*64
1487120486.0,63986,11.88,74776.8,-0.25,-27.51,-27.89,0,*60
1487120487.2,63987,11.88,74778.3,-0.25,-27.51,-27.77,0,*60
1487120488.43,63988,11.88,74776.5,-0.25,-27.35,-27.67,0,*6C
1487120489.68,63989,11.88,74778.0,-0.27,-27.55,-27.83,0,*63
1487120490.93,63990,11.88,74780.5,-0.27,-27.55,-27.83,0,*6B
1487120492.16,63991,11.88,74782.8,-0.27,-27.29,-27.55,0,*6A
1487120493.38,63992,11.88,74784.5,-0.25,-27.35,-27.51,0,*62
1487120494.63,63993,11.88,74788.0,-0.25,-27.19,-27.35,0,*6F
1487120495.83,63994,11.88,74788.0,-0.25,-26.87,-27.07,0,*6F
1487120497.03,63995,11.88,74784.3,-0.25,-26.87,-27.03,0,*6A
1487120498.24,63996,11.88,74784.3,-0.25,-26.87,-27.07,0,*6D
1487120499.49,63997,11.88,74784.5,-0.25,-26.93,-27.19,0,*66
1487120500.69,63998,11.88,74782.5,-0.25,-26.61,-26.87,0,*62
1487120501.93,63999,11.88,74776.3,-0.25,-26.49,-26.77,0,*66
1487120503.15,64000,11.88,74776.0,-0.25,-26.71,-27.03,0,*61
1487120504.38,64001,11.88,74774.3,-0.23,-26.87,-27.07,0,*6B
1487120505.6,64002,11.88,74772.8,-0.23,-27.03,-27.07,0,*65
1487120506.82,64003,11.88,74774.8,-0.23,-26.87,-27.07,0,*69
1487120508.07,64004,11.88,74772.3,-0.23,-27.07,-27.23,0,*61
1487120509.34,64005,11.88,74774.5,-0.23,-27.23,-27.39,0,*6D
1487120510.61,64006,11.88,74772.3,-0.23,-27.19,-27.35,0,*6B
1487120511.88,64007,11.88,74774.5,-0.23,-27.19,-27.35,0,*6A
1487120513.15,64008,11.88,74774.5,-0.23,-27.19,-27.35,0,*65
1487120514.38,64009,11.88,74776.5,-0.23,-27.03,-27.07,0,*6E
1487120515.63,64010,11.88,74776.5,-0.23,-27.07,-27.23,0,*64
1487120516.88,64011,11.88,74778.3,-0.23,-27.07,-27.23,0,*65
1487120518.11,64012,11.88,74776.8,-0.25,-27.07,-27.23,0,*60
1487120519.38,64013,11.88,74778.3,-0.23,-27.19,-27.35,0,*6F
1487120520.6,64014,11.88,74786.3,-0.23,-26.87,-27.03,0,*6B
1487120521.86,64015,11.88,74782.8,-0.21,-26.81,-26.97,0,*62
1487120523.05,64016,11.88,74786.5,-0.21,-26.87,-27.13,0,*6A
1487120524.29,64017,11.88,74778.3,-0.17,-27.03,-27.29,0,*6A
1487120525.49,64018,11.88,74776.8,-0.21,-27.29,-27.51,0,*67
1487120526.75,64019,11.88,74778.8,-0.17,-27.29,-27.45,0,*66
1487120528.0,64020,11.88,74780.8,-0.23,-27.35,-27.67,0,*66
1487120529.24,64021,11.88,74782.5,-0.23,-27.35,-27.51,0,*62
1487120530.51,64022,11.88,74778.3,-0.23,-27.23,-27.39,0,*68
1487120531.76,64023,11.88,74780.5,-0.23,-27.35,-27.55,0,*64
1487120533.0,64024,11.88,74776.3,-0.23,-27.23,-27.55,0,*64
1487120534.23,64025,11.88,74776.3,-0.25,-27.35,-27.67,0,*65
1487120535.45,64026,11.88,74776.0,-0.23,-27.55,-27.71,0,*61
1487120536.7,64027,11.88,74780.8,-0.23,-27.23,-27.51,0,*63
1487120537.98,64028,11.88,74778.8,-0.23,-26.93,-27.19,0,*6A
1487120539.23,64029,11.88,74778.5,-0.23,-26.77,-27.03,0,*6A
1487120540.43,64030,11.88,74778.8,-0.25,-26.87,-27.03,0,*6B
1487120541.69,64031,11.88,74778.8,-0.23,-27.07,-27.23,0,*67
1487120542.95,64032,11.88,74778.8,-0.23,-27.19,-27.19,0,*62
1487120544.22,64033,11.88,74776.5,-0.23,-27.19,-27.35,0,*6D
1487120545.47,64034,11.88,74776.5,-0.23,-27.23,-27.51,0,*61
1487120546.72,64035,11.88,74782.0,-0.17,-27.19,-27.51,0,*6E
1487120547.95,64036,11.88,74780.0,-0.17,-27.29,-27.51,0,*6E
1487120549.18,64037,11.88,74782.3,-0.21,-27.29,-27.61,0,*69
1487120550.39,64038,11.88,74782.3,-0.25,-27.51,-27.67,0,*6B
1487120551.61,64039,11.88,74778.5,-0.23,-27.51,-27.77,0,*6D
1487120552.84,64040,11.88,74776.3,-0.25,-27.39,-27.77,0,*6B
1487120554.04,64041,11.88,74776.8,-0.25,-27.51,-27.77,0,*64
1487120555.24,64042,11.88,74778.0,-0.25,-27.55,-27.89,0,*62
1487120556.44,64043,11.88,74782.5,-0.25,-27.55,-27.89,0,*63
1487120557.65,64044,11.88,74782.8,-0.25,-27.67,-27.93,0,*6E
1487120558.87,64045,11.88,74782.8,-0.23,-27.71,-27.93,0,*6E
1487120560.07,64046,11.88,74784.5,-0.25,-27.55,-27.77,0,*67
1487120561.27,64047,11.88,74784.8,-0.25,-27.55,-27.77,0,*66
1487120562.47,64048,11.88,74780.0,-0.25,-27.55,-27.77,0,*69
1487120563.67,64049,11.88,74786.0,-0.25,-27.55,-27.77,0,*68
1487120564.9,64050,11.88,74786.0,-0.25,-27.39,-27.71,0,*6C
1487120566.13,64051,11.88,74784.8,-0.25,-27.23,-27.55,0,*60
1487120567.35,64052,11.88,74786.8,-0.25,-27.35,-27.55,0,*64
1487120568.58,64053,11.88,74780.5,-0.25,-27.39,-27.67,0,*68
1487120569.81,64054,11.88,74780.8,-0.25,-27.39,-27.67,0,*6F
1487120571.04,64055,11.88,74782.8,-0.25,-27.39,-27.71,0,*69
1487120572.29,64056,11.88,74776.8,-0.27,-27.77,-27.83,0,*6F
1487120573.51,64057,11.88,74780.3,-0.27,-27.71,-27.93,0,*69
1487120574.73,64058,11.88,74782.8,-0.27,-27.71,-27.93,0,*66
1487120575.95,64059,11.88,74778.5,-0.27,-27.71,-27.93,0,*67
1487120577.21,64060,11.88,74782.5,-0.27,-27.77,-27.99,0,*61
1487120578.44,64061,11.88,74782.5,-0.29,-27.77,-28.09,0,*68
1487120579.69,64062,11.88,74780.0,-0.29,-27.45,-27.83,0,*67
1487120580.92,64063,11.88,74780.5,-0.29,-27.45,-27.71,0,*6B
1487120582.15,64064,11.88,74776.8,-0.29,-27.45,-27.71,0,*6C
1487120583.35,64065,11.88,74778.8,-0.29,-27.55,-27.77,0,*6A
1487120584.61,64066,11.88,74782.5,-0.29,-27.61,-27.83,0,*65
1487120585.81,64067,11.88,74782.8,-0.29,-27.71,-27.93,0,*64
1487120587.01,64068,11.88,74778.0,-0.29,-27.71,-27.93,0,*6B
1487120588.22,64069,11.88,74780.0,-0.29,-27.77,-27.93,0,*6C
1487120589.45,64070,11.88,74778.5,-0.33,-27.71,-28.05,0,*69
1487120590.7,64071,11.88,74780.0,-0.31,-27.89,-28.05,0,*6D
1487120591.98,64072,11.88,74776.8,-0.31,-27.83,-28.05,0,*64
1487120593.23,64073,11.88,74776.3,-0.31,-27.83,-28.15,0,*64
1487120594.46,64074,11.88,74776.3,-0.33,-27.93,-28.09,0,*6D
1487120595.69,64075,11.88,74778.5,-0.33,-27.89,-28.05,0,*6B
1487120596.97,64076,11.88,74776.8,-0.31,-27.83,-27.99,0,*6A
1487120598.2,64077,11.88,74776.5,-0.33,-27.93,-28.09,0,*6E
1487120599.43,64078,11.88,74778.3,-0.33,-27.89,-28.05,0,*66
1487120600.66,64079,11.88,74776.3,-0.33,-27.89,-28.05,0,*67
1487120601.87,64080,11.88,74772.0,-0.33,-27.77,-27.89,0,*6B
1487120603.12,64081,11.88,74772.8,-0.33,-27.83,-28.05,0,*6A
1487120604.35,64082,11.88,74776.5,-0.35,-27.71,-27.93,0,*62
1487120605.57,64083,11.88,74778.3,-0.35,-27.67,-27.93,0,*64
1487120606.8,64084,11.88,74778.5,-0.35,-27.67,-27.93,0,*63
1487120608.03,64085,11.88,74776.5,-0.35,-27.67,-27.93,0,*62
1487120609.27,64086,11.88,74776.8,-0.37,-27.61,-27.89,0,*6E
1487120610.47,64087,11.88,74778.8,-0.37,-27.55,-27.71,0,*6F
1487120611.72,64088,11.88,74778.5,-0.35,-27.39,-27.71,0,*68
1487120612.94,64089,11.88,74778.8,-0.37,-27.45,-27.77,0,*66
1487120614.17,64090,11.88,74782.3,-0.37,-27.45,-27.71,0,*68
1487120615.4,64091,11.88,74780.0,-0.35,-27.51,-27.71,0,*6E
1487120616.65,64092,11.88,74772.8,-0.35,-27.39,-27.77,0,*65
1487120617.84,64093,11.88,74776.8,-0.37,-27.55,-27.77,0,*6C
1487120619.07,64094,11.88,74776.5,-0.37,-27.45,-27.71,0,*6C
1487120620.32,64095,11.88,74772.3,-0.35,-27.35,-27.55,0,*6E
1487120621.57,64096,11.88,74782.3,-0.37,-27.39,-27.61,0,*64
1487120622.83,64097,11.88,74782.8,-0.35,-27.39,-27.67,0,*61
1487120624.02,64098,11.88,74780.3,-0.37,-27.55,-27.77,0,*67
1487120625.23,64099,11.88,74780.5,-0.37,-27.55,-27.89,0,*67
1487120626.45,64100,11.88,74780.3,-0.37,-27.23,-27.55,0,*66
1487120627.72,64101,11.88,74776.3,-0.39,-27.39,-27.45,0,*63
1487120628.95,64102,11.88,74784.3,-0.37,-27.39,-27.71,0,*69
1487120630.17,64103,11.88,74780.0,-0.37,-27.39,-27.55,0,*6E
1487120631.42,64104,11.88,74784.8,-0.39,-27.29,-27.45,0,*67
1487120632.7,64105,11.88,74782.5,-0.39,-26.97,-27.23,0,*62
1487120633.93,64106,11.88,74786.0,-0.37,-26.97,-27.13,0,*6C
1487120635.18,64107,11.88,74786.8,-0.37,-26.55,-26.81,0,*69
1487120636.44,64108,11.88,74784.0,-0.37,-26.77,-26.97,0,*61
1487120637.68,64109,11.88,74784.8,-0.37,-26.97,-27.29,0,*6A
1487120638.91,64110,11.88,74784.3,-0.37,-27.07,-27.19,0,*69
1487120640.15,64111,11.88,74782.3,-0.35,-27.35,-27.51,0,*67
1487120641.38,64112,11.88,74784.8,-0.37,-27.39,-27.55,0,*6E
1487120642.59,64113,11.88,74784.8,-0.37,-27.29,-27.55,0,*6E
1487120643.84,64114,11.88,74784.5,-0.37,-27.39,-27.61,0,*6F
1487120645.09,64115,11.88,74786.0,-0.37,-26.77,-26.97,0,*6D
1487120646.35,64116,11.88,74784.3,-0.37,-26.77,-26.97,0,*6E
1487120647.61,64117,11.88,74784.5,-0.37,-26.81,-26.97,0,*66
1487120648.81,64118,11.88,74786.0,-0.37,-26.87,-27.03,0,*63
1487120650.01,64119,11.88,74786.8,-0.37,-26.87,-27.07,0,*66
1487120651.24,64120,11.88,74786.3,-0.37,-26.93,-27.13,0,*6C
1487120652.52,64121,11.88,74788.5,-0.35,-26.93,-27.23,0,*6C
1487120653.77,64122,11.88,74784.8,-0.37,-26.93,-27.23,0,*6D
1487120655.0,64123,11.88,74784.5,-0.37,-26.81,-27.07,0,*69
1487120656.25,64124,11.88,74784.3,-0.35,-26.87,-27.19,0,*65
1487120657.5,64125,11.88,74784.3,-0.35,-27.03,-27.45,0,*60
1487120658.72,64126,11.88,74788.8,-0.37,-27.13,-27.39,0,*6B
1487120659.97,64127,11.88,74786.5,-0.37,-27.23,-27.45,0,*62
1487120661.18,64128,11.88,74790.5,-0.37,-27.19,-27.51,0,*61
1487120662.39,64129,11.88,74790.8,-0.37,-27.13,-27.29,0,*65
1487120663.65,64130,11.88,74786.0,-0.35,-26.77,-27.03,0,*64
1487120664.9,64131,11.88,74786.8,-0.35,-26.55,-26.87,0,*68
1487120666.15,64132,11.88,74786.3,-0.37,-26.97,-27.23,0,*68
1487120667.41,64133,11.88,74786.0,-0.35,-26.65,-26.93,0,*6C
1487120668.68,64134,11.88,74788.0,-0.35,-26.71,-26.93,0,*6E
1487120669.92,64135,11.88,74792.0,-0.35,-26.65,-26.87,0,*6F
1487120671.17,64136,11.88,74788.5,-0.35,-26.55,-26.87,0,*6F
1487120672.42,64137,11.88,74794.8,-0.35,-26.71,-26.87,0,*68
1487120673.67,64138,11.88,74792.3,-0.35,-26.55,-26.87,0,*61
1487120674.92,64139,11.88,74796.3,-0.35,-26.07,-26.33,0,*68
1487120676.18,64140,11.88,74798.0,-0.35,-26.17,-26.39,0,*6D
1487120677.44,64141,11.88,74802.3,-0.31,-25.65,-25.97,0,*69
1487120678.67,64142,11.88,74796.3,-0.31,-25.49,-25.61,0,*6D
1487120679.93,64143,11.88,74798.5,-0.31,-25.81,-26.03,0,*6F
1487120681.18,64144,11.88,74792.0,-0.29,-26.13,-26.55,0,*6A
1487120682.44,64145,11.88,74790.0,-0.29,-26.29,-26.77,0,*62
1487120683.66,64146,11.88,74790.3,-0.29,-26.61,-26.93,0,*67
1487120684.94,64147,11.88,74786.0,-0.27,-26.93,-27.23,0,*6F
1487120686.2,64148,11.88,74788.0,-0.27,-26.81,-27.07,0,*65
1487120687.43,64149,11.88,74786.0,-0.29,-26.65,-26.93,0,*6C
1487120688.68,64150,11.88,74784.0,-0.27,-26.77,-27.07,0,*65
1487120689.92,64151,11.88,74784.0,-0.29,-26.97,-27.29,0,*68
1487120691.15,64152,11.88,74784.5,-0.29,-27.07,-27.39,0,*62
1487120692.39,64153,11.88,74784.5,-0.29,-26.81,-27.13,0,*64
1487120693.62,64154,11.88,74780.5,-0.29,-26.61,-26.93,0,*64
1487120694.84,64155,11.88,74782.5,-0.27,-26.39,-26.65,0,*6F
1487120696.06,64156,11.88,74778.8,-0.27,-26.07,-26.45,0,*63
1487120697.3,64157,11.88,74780.3,-0.27,-26.23,-26.55,0,*65
1487120698.53,64158,11.88,74782.3,-0.27,-26.07,-26.39,0,*66
1487120699.79,64159,11.88,74784.3,-0.27,-26.13,-26.39,0,*62
1487120701.04,64160,11.88,74782.3,-0.27,-26.45,-26.81,0,*68
1487120702.24,64161,11.88,74784.0,-0.25,-26.49,-26.87,0,*61
1487120703.5,64162,11.88,74782.8,-0.25,-26.33,-26.77,0,*60
1487120704.73,64163,11.88,74782.8,-0.25,-26.71,-27.07,0,*61
1487120705.96,64164,11.88,74784.5,-0.25,-26.39,-26.71,0,*6A
1487120707.21,64165,11.88,74786.0,-0.23,-26.39,-26.77,0,*6B
1487120708.49,64166,11.88,74786.8,-0.23,-26.33,-26.77,0,*62
1487120709.74,64167,11.88,74784.5,-0.23,-26.61,-26.93,0,*6E
1487120710.98,64168,11.88,74790.8,-0.23,-26.61,-26.93,0,*61
1487120712.24,64169,11.88,74788.5,-0.23,-26.77,-27.07,0,*6B
1487120713.48,64170,11.88,74784.8,-0.23,-26.71,-27.07,0,*65
1487120714.73,64171,11.88,74788.8,-0.23,-26.55,-26.87,0,*6B
1487120715.98,64172,11.88,74796.0,-0.23,-26.55,-26.87,0,*68
1487120717.22,64173,11.88,74794.3,-0.23,-26.55,-26.87,0,*69
1487120718.47,64174,11.88,74796.5,-0.23,-26.61,-26.93,0,*6C
1487120719.74,64175,11.88,74798.8,-0.23,-26.55,-26.93,0,*6A
1487120721.01,64176,11.88,74794.5,-0.23,-26.71,-27.19,0,*6C
1487120722.29,64177,11.88,74792.3,-0.17,-26.33,-26.71,0,*63
1487120723.52,64178,11.88,74792.5,-0.21,-26.33,-26.87,0,*60
1487120724.76,64179,11.88,74794.3,-0.17,-26.65,-27.03,0,*6A
1487120726.05,64180,11.88,74790.3,-0.17,-26.97,-27.19,0,*6A
1487120727.28,64181,11.88,74788.3,-0.17,-26.87,-27.29,0,*69
1487120728.53,64182,11.88,74790.5,-0.21,-26.81,-27.19,0,*6A
1487120729.77,64183,11.88,74786.8,-0.17,-27.03,-27.29,0,*66
1487120730.97,64184,11.88,74784.0,-0.21,-26.87,-27.29,0,*69
1487120732.25,64185,11.88,74782.8,-0.17,-26.71,-27.19,0,*67
1487120733.47,64186,11.88,74782.5,-0.21,-26.55,-26.87,0,*61
1487120734.72,64187,11.88,74780.8,-0.17,-26.55,-26.87,0,*65
1487120735.96,64188,11.88,74778.8,-0.17,-26.65,-26.87,0,*69
1487120737.21,64189,11.88,74776.0,-0.17,-26.55,-26.87,0,*6B
1487120738.44,64190,11.88,74776.5,-0.15,-26.45,-26.77,0,*6F
1487120739.7,64191,11.94,74778.8,-0.17,-26.45,-26.71,0,*6A
1487120740.93,64192,11.88,74774.0,-0.15,-26.81,-27.13,0,*66
1487120742.15,64193,11.88,74770.3,-0.15,-27.07,-27.45,0,*6B
1487120743.38,64194,11.88,74774.3,-0.15,-27.13,-27.61,0,*6F
1487120744.62,64195,11.88,74778.0,-0.17,-27.29,-27.67,0,*63
1487120745.85,64196,11.88,74776.3,-0.15,-27.39,-27.67,0,*63
1487120747.06,64197,11.88,74780.0,-0.15,-27.29,-27.67,0,*63
1487120748.28,64198,11.88,74780.0,-0.15,-27.13,-27.45,0,*65
1487120749.51,64199,11.88,74780.3,-0.15,-27.07,-27.39,0,*6A
1487120750.79,64200,11.88,74782.3,-0.17,-27.19,-27.61,0,*69
1487120752.04,64201,11.88,74780.8,-0.17,-27.19,-27.67,0,*6E
1487120753.28,64202,11.88,74780.3,-0.21,-27.19,-27.61,0,*6E
1487120754.55,64203,11.88,74776.5,-0.17,-27.19,-27.45,0,*6C
1487120755.78,64204,11.88,74776.5,-0.17,-27.13,-27.51,0,*64
1487120757.04,64205,11.88,74776.8,-0.17,-27.45,-27.71,0,*64
1487120758.24,64206,11.88,74778.8,-0.15,-27.55,-27.77,0,*62
1487120759.44,64207,11.88,74778.0,-0.21,-27.51,-27.89,0,*61
1487120760.64,64208,11.88,74776.3,-0.21,-27.51,-27.89,0,*6E
1487120761.88,64209,11.88,74780.8,-0.21,-27.35,-27.83,0,*67
1487120763.1,64210,11.88,74782.3,-0.21,-27.45,-27.71,0,*65
1487120764.31,64211,11.88,74780.5,-0.21,-27.29,-27.67,0,*69
1487120765.57,64212,11.88,74782.3,-0.17,-27.45,-27.71,0,*62
1487120766.86,64213,11.88,74782.8,-0.17,-27.61,-27.83,0,*68
1487120768.11,64214,11.88,74780.3,-0.21,-27.61,-27.99,0,*61
1487120769.34,64215,11.88,74780.5,-0.21,-27.51,-27.83,0,*68
1487120770.57,64216,11.88,74782.3,-0.17,-27.51,-27.71,0,*63
1487120771.79,64217,11.88,74782.0,-0.21,-27.51,-27.99,0,*61
1487120773.05,64218,11.88,74782.5,-0.21,-27.61,-27.99,0,*6D
1487120774.28,64219,11.88,74782.3,-0.21,-27.71,-27.99,0,*6D
1487120775.48,64220,11.94,74782.8,-0.21,-27.67,-27.89,0,*61
1487120776.7,64221,11.94,74786.3,-0.23,-27.55,-27.93,0,*68
1487120777.95,64222,11.88,74780.3,-0.23,-27.71,-28.05,0,*6D
1487120779.16,64223,11.88,74780.5,-0.25,-27.67,-27.89,0,*66
1487120780.36,64224,11.88,74782.0,-0.25,-27.67,-27.89,0,*61
1487120781.57,64225,11.88,74780.5,-0.25,-27.71,-27.93,0,*6C
1487120782.78,64226,11.88,74782.5,-0.23,-27.55,-27.77,0,*65
1487120784.01,64227,11.88,74780.0,-0.23,-27.55,-27.77,0,*64
1487120785.21,64228,11.88,74782.3,-0.25,-27.51,-27.77,0,*69
1487120786.43,64229,11.88,74780.3,-0.25,-27.23,-27.51,0,*69
1487120787.66,64230,11.88,74776.3,-0.25,-27.23,-27.51,0,*61
1487120788.89,64231,11.88,74778.8,-0.25,-27.35,-27.71,0,*65
1487120790.11,64232,11.88,74780.0,-0.25,-27.39,-27.71,0,*6A
1487120791.32,64233,11.94,74780.0,-0.25,-27.51,-27.71,0,*65
1487120792.55,64234,11.88,74778.8,-0.25,-27.39,-27.67,0,*6B
1487120793.8,64235,11.88,74778.8,-0.23,-27.39,-27.71,0,*6B
1487120795.02,64236,11.88,74778.5,-0.25,-27.35,-27.67,0,*65
1487120796.25,64237,11.88,74780.3,-0.25,-27.23,-27.67,0,*63
1487120797.48,64238,11.88,74780.0,-0.25,-27.35,-27.51,0,*6E
1487120798.71,64239,11.88,74776.5,-0.25,-27.23,-27.55,0,*6C
1487120799.93,64240,11.88,74778.8,-0.25,-27.35,-27.55,0,*65
1487120801.16,64241,11.88,74778.0,-0.25,-27.35,-27.67,0,*65
1487120802.39,64242,11.88,74782.3,-0.25,-27.35,-27.67,0,*66
1487120803.61,64243,11.88,74782.0,-0.25,-27.39,-27.77,0,*6A
1487120804.81,64244,11.88,74782.0,-0.25,-27.51,-27.77,0,*63
1487120806.01,64245,11.94,74780.3,-0.25,-27.51,-27.77,0,*62
1487120807.24,64246,11.88,74778.8,-0.25,-27.39,-27.71,0,*69
1487120808.47,64247,11.88,74778.0,-0.25,-27.39,-27.67,0,*6F
1487120809.67,64248,11.88,74774.8,-0.25,-27.51,-27.77,0,*6F
1487120810.9,64249,11.88,74772.8,-0.25,-27.39,-27.67,0,*61
1487120812.11,64250,11.88,74768.3,-0.25,-27.51,-27.71,0,*60
1487120813.31,64251,11.88,74774.0,-0.25,-27.55,-27.77,0,*63
1487120814.51,64252,11.88,74776.5,-0.25,-27.67,-27.89,0,*60
1487120815.8,64253,11.88,74782.5,-0.27,-27.61,-27.83,0,*6F
1487120817.04,64254,11.88,74780.3,-0.27,-27.45,-27.77,0,*65
1487120818.29,64255,11.88,74780.5,-0.27,-27.45,-27.71,0,*62
1487120819.54,64256,11.88,74778.3,-0.27,-27.39,-27.77,0,*6C
1487120820.76,64257,11.88,74776.5,-0.27,-27.55,-27.93,0,*6D
1487120822.01,64258,11.88,74778.5,-0.27,-27.71,-27.83,0,*65
1487120823.23,64259,11.88,74776.5,-0.27,-27.71,-27.93,0,*65
1487120824.49,64260,11.88,74776.5,-0.27,-27.61,-27.93,0,*6E
1487120825.71,64261,11.88,74778.0,-0.27,-27.71,-27.93,0,*6E
1487120826.97,64262,11.88,74778.5,-0.29,-27.61,-27.83,0,*63
1487120828.23,64263,11.88,74778.3,-0.29,-27.61,-27.83,0,*62
1487120829.51,64264,11.94,74776.8,-0.31,-27.61,-27.83,0,*6C
1487120830.77,64265,11.94,74774.0,-0.31,-27.77,-27.99,0,*61
1487120832.03,64266,11.88,74772.0,-0.31,-27.67,-27.99,0,*63
1487120833.26,64267,11.88,74774.5,-0.31,-27.67,-27.89,0,*63
1487120834.48,64268,11.88,74778.3,-0.33,-27.83,-27.93,0,*6F
1487120835.71,64269,11.88,74774.5,-0.31,-27.67,-27.89,0,*6D
1487120836.97,64270,11.94,74778.0,-0.31,-27.61,-27.89,0,*63
1487120838.22,64271,11.94,74772.0,-0.31,-27.51,-27.83,0,*6B
1487120839.48,64272,11.88,74770.3,-0.31,-27.61,-27.89,0,*61
1487120840.74,64273,11.94,74772.0,-0.31,-27.77,-27.99,0,*66
1487120841.99,64274,11.94,74774.0,-0.33,-27.83,-28.05,0,*62
1487120843.19,64275,11.94,74770.0,-0.33,-27.71,-27.93,0,*6E
1487120844.43,64276,11.94,74770.0,-0.33,-27.71,-28.05,0,*6D
1487120845.66,64277,11.94,74778.3,-0.33,-27.71,-28.05,0,*6C
1487120846.91,64278,11.88,74774.5,-0.33,-27.83,-28.05,0,*6E
1487120848.14,64279,11.88,74770.8,-0.33,-27.55,-27.83,0,*65
1487120849.37,64280,11.88,74770.3,-0.33,-27.55,-27.83,0,*63
1487120850.62,64281,11.94,74770.8,-0.35,-27.51,-27.83,0,*60
1487120851.85,64282,11.94,74772.0,-0.37,-27.61,-27.77,0,*69
1487120853.08,64283,11.88,74770.5,-0.35,-27.55,-27.89,0,*6C
1487120854.31,64284,11.88,74770.8,-0.35,-27.67,-27.89,0,*6A
1487120855.56,64285,11.94,74772.3,-0.35,-27.55,-27.83,0,*60
1487120856.79,64286,11.88,74772.5,-0.35,-27.55,-27.89,0,*69
1487120858.02,64287,11.88,74768.8,-0.37,-27.61,-27.93,0,*66
1487120859.22,64288,11.94,74766.8,-0.37,-27.67,-27.89,0,*64
1487120860.46,64289,11.94,74772.5,-0.37,-27.61,-27.89,0,*63
1487120861.69,64290,11.88,74772.0,-0.37,-27.61,-27.93,0,*60
1487120862.92,64291,11.94,74774.3,-0.37,-27.61,-27.93,0,*61
1487120864.12,64292,11.94,74772.0,-0.37,-27.55,-27.89,0,*6E
1487120865.36,64293,11.94,74774.8,-0.37,-27.61,-27.93,0,*63
1487120866.55,64294,11.88,74768.3,-0.37,-27.55,-27.77,0,*69
1487120867.75,64295,11.88,74774.3,-0.37,-27.71,-27.93,0,*64
1487120868.98,64296,11.88,74774.0,-0.39,-27.55,-27.93,0,*6F
1487120870.23,64297,11.88,74772.8,-0.39,-27.45,-27.71,0,*63
1487120871.48,64298,11.88,74776.8,-0.43,-27.45,-27.77,0,*67
1487120872.73,64299,11.88,74776.0,-0.43,-27.45,-27.67,0,*67
1487120873.98,64300,11.94,74778.0,-0.39,-27.23,-27.55,0,*6A
1487120875.24,64301,11.88,74774.0,-0.39,-27.29,-27.61,0,*66
1487120876.49,64302,11.94,74774.8,-0.43,-27.35,-27.67,0,*63
1487120877.74,64303,11.94,74772.8,-0.39,-27.45,-27.89,0,*68
1487120879.0,64304,11.94,74774.8,-0.39,-27.45,-27.89,0,*6F
1487120880.25,64305,11.94,74776.3,-0.39,-27.45,-27.77,0,*6F
1487120881.48,64306,11.94,74776.3,-0.39,-27.29,-27.77,0,*66
1487120882.72,64307,11.88,74776.0,-0.39,-27.39,-27.77,0,*66
1487120883.97,64308,11.94,74776.0,-0.43,-27.45,-27.77,0,*6F
1487120885.22,64309,11.94,74774.0,-0.43,-27.35,-27.77,0,*69
1487120886.47,64310,11.94,74774.3,-0.39,-27.39,-27.89,0,*61
1487120887.69,64311,11.94,74778.5,-0.43,-27.51,-27.77,0,*62
1487120888.96,64312,11.94,74776.3,-0.43,-27.35,-27.61,0,*64
1487120890.24,64313,11.94,74782.3,-0.39,-27.39,-27.61,0,*64
1487120891.49,64314,11.94,74784.8,-0.43,-27.35,-27.67,0,*64
1487120892.74,64315,11.94,74782.5,-0.45,-27.19,-27.39,0,*66
1487120893.96,64316,11.94,74784.5,-0.45,-27.23,-27.55,0,*66